EW2748 Weather Reports


Display with metric or nautical units.
time (UTC)temp
F
wind
direction
speed
MPH
gust
MPH
rain 1hr
in
rain 24hr
in
rain mn
in
humidity
%
barometer
mb
20260831021527 78 154 0.0 0.0 0.00 0.00 0.00 81 1019.8
20260831021016 78 154 0.0 0.0 0.00 0.00 0.00 81 1019.8
20260831020520 78 154 0.0 0.0 0.00 0.00 0.00 82 1019.8
20260831020035 78 154 0.0 0.0 0.00 0.00 0.00 81 1019.7
20260831015517 78 154 0.0 0.0 0.00 0.00 0.00 80 1019.6
20260831015019 79 154 0.0 0.0 0.00 0.00 0.00 79 1019.5
20260831014520 79 154 0.0 0.0 0.00 0.00 0.00 79 1019.6
20260831014013 79 154 0.0 0.0 0.00 0.00 0.00 79 1019.6
20260831013034 80 154 0.0 0.0 0.00 0.00 0.00 78 1019.5
20260831012513 80 154 0.0 0.0 0.00 0.00 0.00 77 1019.4
20260831012017 80 154 0.0 0.0 0.00 0.00 0.00 76 1019.4
20260831011536 80 154 0.0 0.0 0.00 0.00 0.00 76 1019.3
20260831011009 80 154 0.0 0.0 0.00 0.00 0.00 76 1019.2
20260831010511 81 154 0.0 0.0 0.00 0.00 0.00 75 1019.1
20260831010042 81 154 0.0 0.0 0.00 0.00 0.00 75 1019.0
20260831005519 81 154 0.0 0.0 0.00 0.00 0.00 74 1018.9
20260831005013 81 154 0.0 0.0 0.00 0.00 0.00 73 1018.9
20260831004528 82 154 0.0 0.0 0.00 0.00 0.00 72 1019.0
20260831004019 82 154 0.0 0.0 0.00 0.00 0.00 71 1018.9
20260831003521 83 149 0.0 0.0 0.00 0.00 0.00 70 1018.9
20260831003026 83 150 0.0 0.0 0.00 0.00 0.00 70 1018.9
20260831002515 84 147 0.0 0.0 0.00 0.00 0.00 69 1019.0
20260831002018 84 147 0.0 0.0 0.00 0.00 0.00 68 1019.0
20260831001534 84 147 0.0 0.0 0.00 0.00 0.00 66 1018.9
20260831001016 85 147 0.0 0.0 0.00 0.00 0.00 66 1019.0
20260831000801 85 147 0.0 0.0 0.00 0.00 0.00 64 1019.1
20260831000753 86 147 0.0 0.0 0.00 0.00 0.00 63 1019.2
20260831000750 86 164 0.0 1.0 0.00 0.00 0.00 62 1019.1
20260830234011 86 104 0.0 0.0 0.00 0.00 0.00 62 1019.1
20260830233514 87 153 0.0 3.0 0.00 0.00 0.00 61 1019.2
20260830233035 87 153 0.0 3.0 0.00 0.00 0.00 60 1019.1
20260830232519 87 91 1.0 3.0 0.00 0.00 0.00 60 1019.1
20260830232015 87 96 0.0 3.0 0.00 0.00 0.00 59 1019.2
20260830231506 87 158 0.0 3.0 0.00 0.00 0.00 58 1019.2
20260830231010 87 146 0.0 4.0 0.00 0.00 0.00 58 1019.2
20260830230513 87 120 2.0 4.0 0.00 0.00 0.00 58 1019.1
20260830230014 88 150 0.0 3.0 0.00 0.00 0.00 59 1019.1
20260830225507 88 100 1.0 3.0 0.00 0.00 0.00 59 1019.2
20260830225010 88 103 1.0 2.0 0.00 0.00 0.00 59 1019.1
20260830224533 88 130 0.0 4.0 0.00 0.00 0.00 59 1019.1
20260830224005 88 122 1.0 4.0 0.00 0.00 0.00 58 1018.9
20260830223506 88 145 1.0 4.0 0.00 0.00 0.00 57 1019.1
20260830223022 88 214 0.0 5.0 0.00 0.00 0.00 58 1019.1
20260830222513 88 132 1.0 5.0 0.00 0.00 0.00 58 1019.1
20260830222006 88 245 0.0 4.0 0.00 0.00 0.00 58 1019.0
20260830221516 88 73 2.0 3.0 0.00 0.00 0.00 58 1019.1
20260830221013 88 165 0.0 6.0 0.00 0.00 0.00 58 1019.1
20260830220504 88 231 2.0 6.0 0.00 0.00 0.00 56 1019.2
20260830220026 88 162 1.0 7.0 0.00 0.00 0.00 57 1019.1
20260830215507 89 103 3.0 7.0 0.00 0.00 0.00 55 1019.0
20260830215011 89 206 0.0 5.0 0.00 0.00 0.00 56 1019.1
20260830214512 89 146 2.0 5.0 0.00 0.00 0.00 55 1019.2
20260830214007 89 194 2.0 5.0 0.00 0.00 0.00 55 1019.2
20260830213512 89 107 0.0 5.0 0.00 0.00 0.00 57 1019.1
20260830213008 89 86 0.0 6.0 0.00 0.00 0.00 56 1019.1
20260830212506 89 84 2.0 6.0 0.00 0.00 0.00 55 1019.1
20260830212012 89 162 1.0 3.0 0.00 0.00 0.00 56 1019.3
20260830211530 90 188 0.0 3.0 0.00 0.00 0.00 56 1019.3
20260830211004 90 197 1.0 5.0 0.00 0.00 0.00 56 1019.2
20260830210508 90 92 0.0 6.0 0.00 0.00 0.00 56 1019.2
20260830210026 90 78 1.0 6.0 0.00 0.00 0.00 55 1019.3
20260830205504 90 233 0.0 5.0 0.00 0.00 0.00 55 1019.3
20260830205005 90 100 2.0 5.0 0.00 0.00 0.00 54 1019.5
20260830204518 90 200 2.0 5.0 0.00 0.00 0.00 55 1019.4
20260830204014 90 107 1.0 5.0 0.00 0.00 0.00 55 1019.4
20260830203504 91 109 2.0 5.0 0.00 0.00 0.00 54 1019.6
20260830203018 90 130 2.0 6.0 0.00 0.00 0.00 53 1019.7
20260830202512 90 104 1.0 6.0 0.00 0.00 0.00 53 1019.7
20260830202015 90 143 3.0 6.0 0.00 0.00 0.00 53 1019.7
20260830201547 90 109 0.0 4.0 0.00 0.00 0.00 56 1019.7
20260830201011 90 131 0.0 4.0 0.00 0.00 0.00 57 1019.8
20260830200511 89 223 0.0 5.0 0.00 0.00 0.00 56 1019.9
20260830200007 89 84 2.0 5.0 0.00 0.00 0.00 56 1020.0
20260830195505 89 115 2.0 7.0 0.00 0.00 0.00 56 1020.1
20260830195011 90 209 0.0 7.0 0.00 0.00 0.00 59 1020.2
20260830194533 90 101 2.0 9.0 0.00 0.00 0.00 57 1020.2
20260830194003 91 137 3.0 9.0 0.00 0.00 0.00 57 1020.3
20260830193508 91 164 2.0 5.0 0.00 0.00 0.00 55 1020.3
20260830193036 91 110 1.0 6.0 0.00 0.00 0.00 58 1020.4
20260830192504 90 229 0.0 6.0 0.00 0.00 0.00 58 1020.5
20260830192005 90 108 2.0 7.0 0.00 0.00 0.00 59 1020.5
20260830191533 90 217 0.0 7.0 0.00 0.00 0.00 60 1020.6
20260830191017 90 134 0.0 5.0 0.00 0.00 0.00 57 1020.4
20260830190503 90 143 1.0 6.0 0.00 0.00 0.00 59 1020.7
20260830190023 89 122 2.0 6.0 0.00 0.00 0.00 60 1020.7
20260830185513 90 162 2.0 4.0 0.00 0.00 0.00 61 1020.7
20260830185016 89 219 0.0 5.0 0.00 0.00 0.00 61 1020.8
20260830184515 89 98 2.0 6.0 0.00 0.00 0.00 62 1020.8
20260830184009 88 216 1.0 6.0 0.00 0.00 0.00 63 1020.8
20260830183515 88 140 3.0 6.0 0.00 0.00 0.00 61 1020.9
20260830183008 89 118 1.0 6.0 0.00 0.00 0.00 61 1021.0
20260830182508 89 127 2.0 6.0 0.00 0.00 0.00 63 1021.0
20260830182012 89 95 2.0 7.0 0.00 0.00 0.00 62 1021.0
20260830181537 88 144 1.0 7.0 0.00 0.00 0.00 64 1021.0
20260830181006 89 102 4.0 6.0 0.00 0.00 0.00 62 1021.2
20260830180511 89 134 1.0 11.0 0.00 0.00 0.00 62 1021.3
20260830180032 88 79 3.0 11.0 0.00 0.00 0.00 65 1021.4
20260830175504 88 106 2.0 5.0 0.00 0.00 0.00 65 1021.3
20260830175007 87 234 1.0 6.0 0.00 0.00 0.00 65 1021.4
20260830174528 87 113 1.0 6.0 0.00 0.00 0.00 65 1021.3
20260830174015 87 86 4.0 6.0 0.00 0.00 0.00 66 1021.4
20260830173506 87 89 1.0 6.0 0.00 0.00 0.00 65 1021.6
20260830173030 88 84 3.0 6.0 0.00 0.00 0.00 65 1021.6
20260830172514 87 203 2.0 8.0 0.00 0.00 0.00 65 1021.7
20260830172014 87 125 3.0 8.0 0.00 0.00 0.00 66 1021.7
20260830171517 87 79 3.0 8.0 0.00 0.00 0.00 65 1021.8
20260830171010 87 102 4.0 8.0 0.00 0.00 0.00 66 1021.8
20260830170513 87 138 3.0 6.0 0.00 0.00 0.00 66 1021.9
20260830170014 86 108 1.0 6.0 0.00 0.00 0.00 67 1021.9
20260830165509 86 96 1.0 6.0 0.00 0.00 0.00 67 1022.0
20260830165013 86 146 4.0 6.0 0.00 0.00 0.00 68 1022.0
20260830164536 86 142 2.0 5.0 0.00 0.00 0.00 68 1021.9
20260830164007 86 95 3.0 5.0 0.00 0.00 0.00 68 1021.9
20260830163510 85 82 2.0 5.0 0.00 0.00 0.00 69 1022.2
20260830163034 84 126 0.0 6.0 0.00 0.00 0.00 74 1022.2
20260830162507 84 84 2.0 6.0 0.00 0.00 0.00 71 1022.2
20260830162008 84 108 0.0 3.0 0.00 0.00 0.00 72 1022.2
20260830161527 84 106 1.0 3.0 0.00 0.00 0.00 72 1022.1
20260830161013 85 143 1.0 3.0 0.00 0.00 0.00 71 1022.3
20260830160507 84 172 0.0 3.0 0.00 0.00 0.00 73 1022.4
20260830160024 84 87 1.0 3.0 0.00 0.00 0.00 73 1022.4
20260830155515 84 141 0.0 2.0 0.00 0.00 0.00 74 1022.4
20260830155014 83 148 1.0 2.0 0.00 0.00 0.00 75 1022.3
20260830154523 83 105 0.0 2.0 0.00 0.00 0.00 74 1022.3
20260830154011 83 134 0.0 3.0 0.00 0.00 0.00 75 1022.4
20260830153516 83 117 0.0 4.0 0.00 0.00 0.00 75 1022.3
20260830153028 83 146 1.0 4.0 0.00 0.00 0.00 75 1022.5
20260830152512 83 219 1.0 7.0 0.00 0.00 0.00 74 1022.5
20260830152014 83 238 2.0 7.0 0.00 0.00 0.00 74 1022.5
20260830151532 83 213 1.0 3.0 0.00 0.00 0.00 74 1022.4
20260830151012 83 220 0.0 2.0 0.00 0.00 0.00 76 1022.3
20260830150514 83 120 1.0 4.0 0.00 0.00 0.00 76 1022.2
20260830150032 83 121 2.0 5.0 0.00 0.00 0.00 77 1022.2
20260830145508 83 66 0.0 5.0 0.00 0.00 0.00 77 1022.3
20260830145009 83 150 0.0 3.0 0.00 0.00 0.00 78 1022.4
20260830144540 82 93 2.0 3.0 0.00 0.00 0.00 78 1022.3
20260830144016 82 186 0.0 4.0 0.00 0.00 0.00 79 1022.3
20260830143509 82 114 1.0 4.0 0.00 0.00 0.00 78 1022.3
20260830143028 82 106 3.0 4.0 0.00 0.00 0.00 79 1022.3
20260830142516 82 159 0.0 2.0 0.00 0.00 0.00 79 1022.3
20260830142018 81 200 0.0 2.0 0.00 0.00 0.00 80 1022.3
20260830141525 81 197 0.0 3.0 0.00 0.00 0.00 81 1022.3
20260830141016 81 160 0.0 3.0 0.00 0.00 0.00 81 1022.4
20260830140503 80 109 1.0 4.0 0.00 0.00 0.00 81 1022.4
20260830140008 80 117 2.0 4.0 0.00 0.00 0.00 82 1022.4
20260830135505 80 126 0.0 3.0 0.00 0.00 0.00 82 1022.3
20260830135006 80 127 0.0 3.0 0.00 0.00 0.00 83 1022.4
20260830134511 80 157 2.0 3.0 0.00 0.00 0.00 83 1022.3
20260830134006 79 105 1.0 3.0 0.00 0.00 0.00 84 1022.2
20260830133503 79 134 1.0 4.0 0.00 0.00 0.00 84 1022.2
20260830133027 79 91 1.0 4.0 0.00 0.00 0.00 84 1022.3
20260830132503 79 134 0.0 4.0 0.00 0.00 0.00 85 1022.2
20260830132002 78 203 0.0 4.0 0.00 0.00 0.00 85 1022.1
20260830131508 78 146 0.0 2.0 0.00 0.00 0.00 86 1022.0
20260830131004 78 144 0.0 2.0 0.00 0.00 0.00 87 1021.9
20260830130504 77 142 0.0 2.0 0.00 0.00 0.00 87 1021.8
20260830130006 77 158 0.0 2.0 0.00 0.00 0.00 88 1021.8
20260830125503 77 137 0.0 3.0 0.00 0.00 0.00 89 1021.7
20260830125004 76 84 0.0 3.0 0.00 0.00 0.00 89 1021.7
20260830124503 76 93 1.0 3.0 0.00 0.00 0.00 90 1021.7
20260830124006 76 138 0.0 3.0 0.00 0.00 0.00 90 1021.7
20260830123504 76 101 0.0 1.0 0.00 0.00 0.00 90 1021.9
20260830123008 75 150 0.0 1.0 0.00 0.00 0.00 91 1021.7
20260830122504 75 140 0.0 3.0 0.00 0.00 0.00 91 1021.7
20260830122006 75 97 0.0 3.0 0.00 0.00 0.00 92 1021.6
20260830121510 75 165 1.0 3.0 0.00 0.00 0.00 92 1021.6
20260830121007 75 105 0.0 2.0 0.00 0.00 0.00 92 1021.5
20260830120503 74 110 0.0 0.0 0.00 0.00 0.00 92 1021.4
20260830120009 74 146 0.0 0.0 0.00 0.00 0.00 93 1021.5
20260830115506 74 134 0.0 0.0 0.00 0.00 0.00 93 1021.4
20260830115003 74 113 0.0 1.0 0.00 0.00 0.00 93 1021.3
20260830114508 74 103 0.0 1.0 0.00 0.00 0.00 93 1021.4
20260830114004 74 91 0.0 0.0 0.00 0.00 0.00 93 1021.3
20260830113502 74 91 0.0 0.0 0.00 0.00 0.00 93 1021.3
20260830113004 74 91 0.0 0.0 0.00 0.00 0.00 92 1021.3
20260830112503 74 91 0.0 0.0 0.00 0.00 0.00 92 1021.2
20260830112004 74 91 0.0 1.0 0.00 0.00 0.00 92 1021.1
20260830111504 74 90 0.0 1.0 0.00 0.00 0.00 92 1021.1
20260830111004 74 107 0.0 1.0 0.00 0.00 0.00 92 1021.0
20260830110504 74 99 0.0 1.0 0.00 0.00 0.00 92 1021.0
20260830110010 74 100 0.0 4.0 0.00 0.00 0.00 92 1020.8
20260830105506 74 110 0.0 4.0 0.00 0.00 0.00 92 1020.8
20260830105003 74 90 0.0 4.0 0.00 0.00 0.00 92 1020.8
20260830104509 74 99 0.0 0.0 0.00 0.00 0.00 92 1020.7
20260830104003 74 134 0.0 0.0 0.00 0.00 0.00 92 1020.7
20260830103506 74 112 0.0 0.0 0.00 0.00 0.00 92 1020.6
20260830103007 74 136 0.0 0.0 0.00 0.00 0.00 92 1020.6
20260830102504 74 109 0.0 0.0 0.00 0.00 0.00 92 1020.6
20260830102002 74 118 0.0 0.0 0.00 0.00 0.00 92 1020.5
20260830101510 74 143 0.0 0.0 0.00 0.00 0.00 92 1020.5
20260830101003 74 143 0.0 0.0 0.00 0.00 0.00 92 1020.3
20260830100506 74 143 0.0 0.0 0.00 0.00 0.00 92 1020.5
20260830100012 74 143 0.0 0.0 0.00 0.00 0.00 92 1020.4
20260830095507 74 143 0.0 0.0 0.00 0.00 0.00 92 1020.4
20260830095005 74 143 0.0 0.0 0.00 0.00 0.00 92 1020.2
20260830094504 74 143 0.0 0.0 0.00 0.00 0.00 92 1020.3
20260830094004 74 143 0.0 0.0 0.00 0.00 0.00 92 1020.2
20260830093503 74 143 0.0 0.0 0.00 0.00 0.00 92 1020.3
20260830093013 74 143 0.0 0.0 0.00 0.00 0.00 93 1020.2
20260830092505 74 104 0.0 0.0 0.00 0.00 0.00 93 1020.3
20260830092004 74 105 0.0 0.0 0.00 0.00 0.00 93 1020.3
20260830091511 74 105 0.0 0.0 0.00 0.00 0.00 92 1020.3
20260830091003 74 105 0.0 0.0 0.00 0.00 0.00 92 1020.2
20260830090503 74 105 0.0 0.0 0.00 0.00 0.00 92 1020.1
20260830090036 74 105 0.0 0.0 0.00 0.00 0.00 91 1020.2
20260830085503 74 105 0.0 0.0 0.00 0.00 0.00 92 1020.3
20260830085002 74 105 0.0 0.0 0.00 0.00 0.00 92 1020.3
20260830084512 74 105 0.0 0.0 0.00 0.00 0.00 92 1020.1
20260830084005 74 104 0.0 0.0 0.00 0.00 0.00 91 1020.3
20260830083503 74 105 0.0 0.0 0.00 0.00 0.00 91 1020.3
20260830083011 75 105 0.0 0.0 0.00 0.00 0.00 91 1020.2
20260830082503 75 105 0.0 0.0 0.00 0.00 0.00 90 1020.2
20260830082004 75 105 0.0 0.0 0.00 0.00 0.00 90 1020.3
20260830081508 75 105 0.0 0.0 0.00 0.00 0.00 89 1020.2
20260830081005 75 105 0.0 0.0 0.00 0.00 0.00 89 1020.1
20260830080506 75 105 0.0 0.0 0.00 0.00 0.00 89 1020.3
20260830080029 75 105 0.0 0.0 0.00 0.00 0.00 89 1020.1
20260830075503 76 105 0.0 0.0 0.00 0.00 0.00 89 1020.1
20260830075009 75 97 0.0 0.0 0.00 0.00 0.00 89 1020.1
20260830074512 76 97 0.0 0.0 0.00 0.00 0.00 89 1020.1
20260830074003 76 97 0.0 0.0 0.00 0.00 0.00 89 1020.1
20260830073506 76 97 0.0 0.0 0.00 0.00 0.00 88 1020.1
20260830073014 76 96 0.0 0.0 0.00 0.00 0.00 88 1020.1
20260830072507 76 116 0.0 0.0 0.00 0.00 0.00 88 1020.2
20260830072003 76 117 0.0 0.0 0.00 0.00 0.00 88 1020.2
20260830071518 76 117 0.0 0.0 0.00 0.00 0.00 88 1020.2
20260830071007 76 117 0.0 0.0 0.00 0.00 0.00 88 1020.2
20260830070504 76 117 0.0 0.0 0.00 0.00 0.00 88 1020.2
20260830070015 76 116 0.0 0.0 0.00 0.00 0.00 87 1020.1
20260830065509 76 122 0.0 0.0 0.00 0.00 0.00 87 1020.3
20260830065004 76 149 0.0 0.0 0.00 0.00 0.00 87 1020.3
20260830064533 76 149 0.0 0.0 0.00 0.00 0.00 87 1020.2
20260830064008 77 149 0.0 0.0 0.00 0.00 0.00 86 1020.2
20260830063506 77 149 0.0 0.0 0.00 0.00 0.00 86 1020.4
20260830063014 77 113 0.0 0.0 0.00 0.00 0.00 86 1020.3
20260830062506 77 142 0.0 0.0 0.00 0.00 0.00 86 1020.3
20260830062007 77 143 0.0 0.0 0.00 0.00 0.00 86 1020.3
20260830061518 77 110 0.0 0.0 0.00 0.00 0.00 86 1020.2
20260830061003 77 162 0.0 1.0 0.00 0.00 0.00 86 1020.4
20260830060512 77 146 0.0 1.0 0.00 0.00 0.00 85 1020.2
20260830060019 77 146 0.0 1.0 0.00 0.00 0.00 85 1020.3
20260830055508 77 98 0.0 0.0 0.00 0.00 0.00 85 1020.3
20260830055006 77 98 0.0 0.0 0.00 0.00 0.00 85 1020.2
20260830054652 77 104 0.0 0.0 0.00 0.00 0.00 85 1020.1
20260830054649 77 107 0.0 0.0 0.00 0.00 0.00 84 1020.2
20260830054645 77 141 0.0 0.0 0.00 0.00 0.00 84 1020.3
20260830054640 77 141 0.0 0.0 0.00 0.00 0.00 83 1020.2
20260830054637 78 87 0.0 2.0 0.00 0.00 0.00 83 1020.3
20260830051011 78 96 0.0 1.0 0.00 0.00 0.00 83 1020.5
20260830050507 78 96 0.0 1.0 0.00 0.00 0.00 83 1020.6
20260830050010 78 98 0.0 0.0 0.00 0.00 0.00 83 1020.4
20260830045508 78 94 0.0 0.0 0.00 0.00 0.00 83 1020.6
20260830045009 78 86 0.0 0.0 0.00 0.00 0.00 83 1020.5
20260830044525 78 86 0.0 0.0 0.00 0.00 0.00 83 1020.6
20260830044004 78 86 0.0 0.0 0.00 0.00 0.00 82 1020.5
20260830043508 78 108 0.0 0.0 0.00 0.00 0.00 82 1020.5
20260830043021 78 110 0.0 0.0 0.00 0.00 0.00 82 1020.5
20260830042510 78 113 0.0 3.0 0.00 0.00 0.00 82 1020.7
20260830042010 78 113 0.0 4.0 0.00 0.00 0.00 82 1020.6
20260830041527 78 124 0.0 4.0 0.00 0.00 0.00 82 1020.6
20260830041007 78 124 0.0 2.0 0.00 0.00 0.00 82 1020.5
20260830040507 78 124 0.0 1.0 0.00 0.00 0.00 83 1020.5
20260830040026 78 107 0.0 3.0 0.00 0.00 0.00 83 1020.5
20260830035508 78 107 0.0 3.0 0.00 0.00 0.00 82 1020.6
20260830035010 78 108 0.0 0.0 0.00 0.00 0.00 82 1020.6
20260830034518 78 89 0.0 1.0 0.00 0.00 0.00 82 1020.5
20260830034011 78 89 0.0 1.0 0.00 0.00 0.00 82 1020.5
20260830033509 78 113 0.0 0.0 0.00 0.00 0.00 82 1020.4
20260830033015 79 113 0.0 0.0 0.00 0.00 0.00 82 1020.5
20260830032510 79 113 0.0 0.0 0.00 0.00 0.00 82 1020.4
20260830032011 79 113 0.0 0.0 0.00 0.00 0.00 82 1020.3
20260830031531 79 115 0.0 1.0 0.00 0.00 0.00 82 1020.3
20260830031008 79 116 0.0 1.0 0.00 0.00 0.00 82 1020.3
20260830030511 79 87 0.0 1.0 0.00 0.00 0.00 81 1020.3
20260830030030 79 110 0.0 0.0 0.00 0.00 0.00 81 1020.2
20260830025514 79 111 0.0 0.0 0.00 0.00 0.00 81 1020.2
20260830025008 79 110 0.0 0.0 0.00 0.00 0.00 81 1020.3
20260830024534 79 110 0.0 0.0 0.00 0.00 0.00 82 1020.2
20260830024003 78 110 0.0 0.0 0.00 0.00 0.00 82 1020.2
20260830023509 78 110 0.0 0.0 0.00 0.00 0.00 83 1020.0
20260830023026 78 110 0.0 0.0 0.00 0.00 0.00 83 1019.9
20260830022503 78 110 0.0 0.0 0.00 0.00 0.00 83 1019.9
20260830022005 78 110 0.0 0.0 0.00 0.00 0.00 82 1019.8